Tracking 27423 objects as of 8-Jun-2023
HD Live streaming from Space Station
objects crossing your sky now

ONEWEB-0177

Track ONEWEB-0177 now!
10-day predictions
ONEWEB-0177 is classified as:


NORAD ID: 48074
Int'l Code: 2021-025AJ
Perigee: 1,215.7 km
Apogee: 1,218.1 km
Inclination: 87.9 °
Period: 109.6 minutes
Semi major axis: 7587 km
RCS: Unknown
Launch date: March 25, 2021
Source: United States (US)
Launch site: VOSTOCHNY COSMODROME (VOSTO)
Your satellite tracking list
Your tracking list is empty




NASA's NSSDC Master Catalog

Two Line Element Set (TLE):
1 48074U 21025AJ  23159.52201066  .00000254  00000-0  66055-3 0  9991
2 48074  87.9048 179.8723 0001526 101.6043 258.5257 13.13469577108668
Source of the keplerian elements: AFSPC